User: anonymous   Login
Location: Unspecified
(0.0000°N, 0.0000°E)
Time: 08:46:14
(UTC+00:00)
Language:

DOVE 4 - Orbit

View from above orbital plane
View from above orbital plane
View from above satellite
View from above satellite

Ground track
Ground track

The orbit data is extracted from the following two-line orbital elements,

1 39430U 13066Q   19290.09724334  .00000127  00000-0  32333-4 0  9996
2 39430  97.7597 238.7967 0149916 234.4586 124.2575 14.59296292314169
Epoch (UTC): 17 October 2019 02:20:01
Eccentricity: 0.0149916
inclination: 97.7597°
perigee height: 589 km
apogee height: 801 km
right ascension of ascending node: 238.7967°
argument of perigee: 234.4586°
revolutions per day: 14.59296292
mean anomaly at epoch: 124.2575°
orbit number at epoch: 31416

The dashed part of the orbit path shows where the satellite is in the earth's shadow,  

DLR